FW0840 Weather Reports


Display with metric or nautical units.
time (UTC)temp
F
wind
direction
speed
MPH
gust
MPH
rain 1hr
in
rain 24hr
in
rain mn
in
humidity
%
barometer
mb
20181118151511 48 136 4.0 0.0 0.00 0.00 0.00 70 1026.1
20181118151011 48 108 6.0 0.0 0.00 0.00 0.00 71 1026.1
20181118150510 48 122 3.0 0.0 0.00 0.00 0.00 70 1026.1
20181118150012 48 110 2.0 0.0 0.00 0.00 0.00 72 1026.1
20181118145511 48 125 2.0 0.0 0.00 0.00 0.00 73 1026.1
20181118145011 48 104 4.0 0.0 0.00 0.00 0.00 72 1026.0
20181118144510 48 111 2.0 0.0 0.00 0.00 0.00 71 1026.0
20181118144011 48 101 4.0 0.0 0.00 0.00 0.00 72 1025.9
20181118143510 47 107 4.0 0.0 0.00 0.00 0.00 74 1025.9
20181118143011 47 130 3.0 0.0 0.00 0.00 0.00 75 1026.0
20181118142511 47 101 4.0 0.0 0.00 0.00 0.00 75 1025.9
20181118142011 47 101 3.0 0.0 0.00 0.00 0.00 73 1026.0
20181118141510 46 105 6.0 0.0 0.00 0.00 0.00 76 1026.0
20181118141011 45 113 3.0 0.0 0.00 0.00 0.00 74 1025.9
20181118140511 45 100 4.0 0.0 0.00 0.00 0.00 74 1025.8
20181118140011 45 95 3.0 0.0 0.00 0.00 0.00 79 1025.9
20181118135511 43 107 3.0 0.0 0.00 0.00 0.00 79 1025.9
20181118135011 43 117 3.0 0.0 0.00 0.00 0.00 78 1026.0
20181118134511 43 110 3.0 0.0 0.00 0.00 0.00 78 1025.9
20181118134011 43 109 3.0 0.0 0.00 0.00 0.00 79 1025.9
20181118133511 44 109 2.0 0.0 0.00 0.00 0.00 78 1025.9
20181118133011 43 111 4.0 0.0 0.00 0.00 0.00 78 1025.8
20181118132511 42 95 3.0 0.0 0.00 0.00 0.00 80 1025.7
20181118132011 42 95 2.0 0.0 0.00 0.00 0.00 80 1025.6
20181118131511 42 76 2.0 0.0 0.00 0.00 0.00 81 1025.7
20181118131011 42 76 2.0 0.0 0.00 0.00 0.00 80 1025.7
20181118130511 42 76 2.0 0.0 0.00 0.00 0.00 81 1025.7
20181118130011 42 76 2.0 0.0 0.00 0.00 0.00 80 1025.6
20181118125511 42 76 3.0 0.0 0.00 0.00 0.00 77 1025.6
20181118125011 42 74 3.0 0.0 0.00 0.00 0.00 77 1025.6
20181118124512 43 74 2.0 0.0 0.00 0.00 0.00 77 1025.5
20181118124011 42 74 3.0 0.0 0.00 0.00 0.00 78 1025.4
20181118123511 41 104 3.0 0.0 0.00 0.00 0.00 80 1025.3
20181118123011 40 104 3.0 0.0 0.00 0.00 0.00 79 1025.3
20181118122511 40 104 2.0 0.0 0.00 0.00 0.00 79 1025.2
20181118122011 41 104 2.0 0.0 0.00 0.00 0.00 78 1025.1
20181118121510 41 104 2.0 0.0 0.00 0.00 0.00 78 1025.2
20181118121011 41 104 1.0 0.0 0.00 0.00 0.00 79 1025.2
20181118120511 41 104 2.0 0.0 0.00 0.00 0.00 79 1025.2
20181118120011 41 104 1.0 0.0 0.00 0.00 0.00 79 1025.1
20181118115511 41 104 3.0 0.0 0.00 0.00 0.00 79 1025.1
20181118115011 41 107 1.0 0.0 0.00 0.00 0.00 79 1025.1
20181118114511 41 107 1.0 0.0 0.00 0.00 0.00 78 1025.1
20181118114011 41 107 1.0 0.0 0.00 0.00 0.00 78 1025.2
20181118113512 41 107 2.0 0.0 0.00 0.00 0.00 78 1025.1
20181118113010 41 93 2.0 0.0 0.00 0.00 0.00 79 1025.2
20181118112510 41 78 1.0 0.0 0.00 0.00 0.00 79 1025.1
20181118112010 41 76 2.0 0.0 0.00 0.00 0.00 78 1025.1
20181118111510 41 94 3.0 0.0 0.00 0.00 0.00 78 1025.1
20181118111011 41 109 2.0 0.0 0.00 0.00 0.00 78 1025.0
20181118110510 41 109 3.0 0.0 0.00 0.00 0.00 78 1025.0
20181118110010 41 107 3.0 0.0 0.00 0.00 0.00 79 1025.0
20181118105511 41 107 2.0 0.0 0.00 0.00 0.00 78 1024.9
20181118105010 41 120 2.0 0.0 0.00 0.00 0.00 78 1024.9
20181118104510 41 115 2.0 0.0 0.00 0.00 0.00 78 1024.9
20181118104010 41 91 3.0 0.0 0.00 0.00 0.00 78 1024.8
20181118103510 41 93 2.0 0.0 0.00 0.00 0.00 78 1024.8
20181118103010 41 89 3.0 0.0 0.00 0.00 0.00 78 1024.8
20181118102511 41 76 3.0 0.0 0.00 0.00 0.00 78 1024.8
20181118102010 41 82 3.0 0.0 0.00 0.00 0.00 78 1024.8
20181118101511 41 76 3.0 0.0 0.00 0.00 0.00 78 1024.8
20181118101011 40 74 3.0 0.0 0.00 0.00 0.00 79 1024.8
20181118100511 40 74 2.0 0.0 0.00 0.00 0.00 80 1024.8
20181118100010 40 74 3.0 0.0 0.00 0.00 0.00 79 1024.7
20181118095511 41 74 3.0 0.0 0.00 0.00 0.00 78 1024.8
20181118095010 41 74 2.0 0.0 0.00 0.00 0.00 77 1024.7
20181118094511 41 74 1.0 0.0 0.00 0.00 0.00 77 1024.8
20181118094010 42 74 2.0 0.0 0.00 0.00 0.00 77 1024.8
20181118093510 42 74 2.0 0.0 0.00 0.00 0.00 76 1024.8
20181118093011 42 74 2.0 0.0 0.00 0.00 0.00 77 1024.7
20181118092511 42 74 1.0 0.0 0.00 0.00 0.00 76 1024.7
20181118092010 42 74 3.0 0.0 0.00 0.00 0.00 77 1024.7
20181118091011 41 85 2.0 0.0 0.00 0.00 0.00 77 1024.6
20181118090511 42 85 1.0 0.0 0.00 0.00 0.00 76 1024.5
20181118090011 42 85 2.0 0.0 0.00 0.00 0.00 77 1024.5
20181118085510 42 85 1.0 0.0 0.00 0.00 0.00 77 1024.6
20181118085011 42 85 1.0 0.0 0.00 0.00 0.00 76 1024.7
20181118084511 42 85 2.0 0.0 0.00 0.00 0.00 76 1024.6
20181118084011 42 85 1.0 0.0 0.00 0.00 0.00 75 1024.7
20181118083511 42 85 1.0 0.0 0.00 0.00 0.00 75 1024.7
20181118083011 42 85 0.0 0.0 0.00 0.00 0.00 75 1024.7
20181118082511 42 85 0.0 0.0 0.00 0.00 0.00 75 1024.7
20181118082010 42 85 1.0 0.0 0.00 0.00 0.00 75 1024.7
20181118081511 42 85 0.0 0.0 0.00 0.00 0.00 75 1024.7
20181118081010 42 85 0.0 0.0 0.00 0.00 0.00 75 1024.6
20181118080510 42 85 1.0 0.0 0.00 0.00 0.00 76 1024.6
20181118080011 42 85 1.0 0.0 0.00 0.00 0.00 75 1024.6
20181118075511 42 85 1.0 0.0 0.00 0.00 0.00 75 1024.7
20181118075011 42 85 2.0 0.0 0.00 0.00 0.00 75 1024.6
20181118074510 42 88 1.0 0.0 0.00 0.00 0.00 76 1024.6
20181118074010 42 88 1.0 0.0 0.00 0.00 0.00 76 1024.6
20181118073510 42 88 1.0 0.0 0.00 0.00 0.00 76 1024.6
20181118073011 42 88 2.0 0.0 0.00 0.00 0.00 76 1024.6
20181118072511 42 88 3.0 0.0 0.00 0.00 0.00 75 1024.7
20181118072011 42 88 2.0 0.0 0.00 0.00 0.00 75 1024.6
20181118071511 42 88 2.0 0.0 0.00 0.00 0.00 75 1024.6
20181118071011 42 104 2.0 0.0 0.00 0.00 0.00 74 1024.6
20181118070510 42 105 2.0 0.0 0.00 0.00 0.00 74 1024.6
20181118070011 42 104 4.0 0.0 0.00 0.00 0.00 75 1024.6
20181118065512 42 98 3.0 0.0 0.00 0.00 0.00 74 1024.6
20181118065011 42 98 4.0 0.0 0.00 0.00 0.00 75 1024.7
20181118064511 42 76 4.0 0.0 0.00 0.00 0.00 74 1024.7
20181118064011 43 74 3.0 0.0 0.00 0.00 0.00 74 1024.7
20181118063511 42 65 3.0 0.0 0.00 0.00 0.00 75 1024.7
20181118063011 43 65 2.0 0.0 0.00 0.00 0.00 74 1024.8
20181118062511 42 65 2.0 0.0 0.00 0.00 0.00 75 1024.8
20181118062011 42 65 2.0 0.0 0.00 0.00 0.00 75 1024.8
20181118061511 42 81 3.0 0.0 0.00 0.00 0.00 74 1024.9
20181118061011 42 81 3.0 0.0 0.00 0.00 0.00 75 1024.9
20181118060511 42 80 2.0 0.0 0.00 0.00 0.00 75 1025.0
20181118060011 42 80 2.0 0.0 0.00 0.00 0.00 75 1025.0
20181118055511 42 80 2.0 0.0 0.00 0.00 0.00 75 1025.0
20181118055011 42 80 2.0 0.0 0.00 0.00 0.00 74 1025.0
20181118054511 42 80 2.0 0.0 0.00 0.00 0.00 74 1025.0
20181118054011 42 80 2.0 0.0 0.00 0.00 0.00 74 1025.1
20181118053511 42 85 1.0 0.0 0.00 0.00 0.00 74 1025.1
20181118053011 42 85 2.0 0.0 0.00 0.00 0.00 74 1025.2
20181118052511 43 85 1.0 0.0 0.00 0.00 0.00 73 1025.2
20181118052011 43 85 2.0 0.0 0.00 0.00 0.00 73 1025.2
20181118051510 43 85 2.0 0.0 0.00 0.00 0.00 74 1025.2
20181118051011 43 85 1.0 0.0 0.00 0.00 0.00 73 1025.2
20181118050511 43 85 2.0 0.0 0.00 0.00 0.00 73 1025.2
20181118050011 43 85 1.0 0.0 0.00 0.00 0.00 73 1025.2
20181118045511 43 81 1.0 0.0 0.00 0.00 0.00 73 1025.3
20181118045011 43 81 1.0 0.0 0.00 0.00 0.00 73 1025.3
20181118044511 43 81 2.0 0.0 0.00 0.00 0.00 73 1025.4
20181118044011 43 81 1.0 0.0 0.00 0.00 0.00 73 1025.4
20181118043512 43 81 1.0 0.0 0.00 0.00 0.00 73 1025.4
20181118043011 43 81 2.0 0.0 0.00 0.00 0.00 73 1025.4
20181118042511 43 81 2.0 0.0 0.00 0.00 0.00 73 1025.4
20181118042011 43 80 1.0 0.0 0.00 0.00 0.00 73 1025.5
20181118041511 43 79 2.0 0.0 0.00 0.00 0.00 73 1025.6
20181118041011 43 79 1.0 0.0 0.00 0.00 0.00 73 1025.5
20181118040511 43 79 3.0 0.0 0.00 0.00 0.00 73 1025.5
20181118040010 43 79 2.0 0.0 0.00 0.00 0.00 72 1025.5
20181118035511 43 79 2.0 0.0 0.00 0.00 0.00 72 1025.5
20181118035010 43 79 2.0 0.0 0.00 0.00 0.00 73 1025.5
20181118034510 43 79 2.0 0.0 0.00 0.00 0.00 73 1025.5
20181118034011 43 79 3.0 0.0 0.00 0.00 0.00 73 1025.5
20181118033510 43 79 2.0 0.0 0.00 0.00 0.00 72 1025.5
20181118033011 44 79 2.0 0.0 0.00 0.00 0.00 72 1025.5
20181118032511 43 79 3.0 0.0 0.00 0.00 0.00 72 1025.5
20181118032010 43 79 1.0 0.0 0.00 0.00 0.00 72 1025.5
20181118031510 43 79 1.0 0.0 0.00 0.00 0.00 72 1025.3
20181118031010 43 79 1.0 0.0 0.00 0.00 0.00 72 1025.3
20181118030510 43 79 0.0 0.0 0.00 0.00 0.00 72 1025.4
20181118030010 43 79 2.0 0.0 0.00 0.00 0.00 72 1025.3
20181118025511 43 79 2.0 0.0 0.00 0.00 0.00 72 1025.3
20181118025011 43 79 1.0 0.0 0.00 0.00 0.00 72 1025.3
20181118024511 44 79 2.0 0.0 0.00 0.00 0.00 71 1025.3
20181118024011 44 79 1.0 0.0 0.00 0.00 0.00 71 1025.2
20181118023511 44 79 1.0 0.0 0.00 0.00 0.00 71 1025.2
20181118023010 44 79 0.0 0.0 0.00 0.00 0.00 71 1025.0
20181118022511 44 79 0.0 0.0 0.00 0.00 0.00 71 1024.9
20181118022010 44 79 1.0 0.0 0.00 0.00 0.00 71 1024.9
20181118021510 44 79 0.0 0.0 0.00 0.00 0.00 71 1024.9
20181118021011 45 79 1.0 0.0 0.00 0.00 0.00 70 1024.9
20181118020510 45 79 2.0 0.0 0.00 0.00 0.00 70 1024.8
20181118020011 45 78 1.0 0.0 0.00 0.00 0.00 70 1024.8
20181118015510 45 78 1.0 0.0 0.00 0.00 0.00 69 1024.8
20181118015010 45 78 1.0 0.0 0.00 0.00 0.00 70 1024.7
20181118014511 46 78 1.0 0.0 0.00 0.00 0.00 69 1024.7
20181118014010 45 78 3.0 0.0 0.00 0.00 0.00 70 1024.6
20181118013510 45 77 1.0 0.0 0.00 0.00 0.00 70 1024.7
20181118013010 45 77 1.0 0.0 0.00 0.00 0.00 70 1024.9
20181118012510 45 76 1.0 0.0 0.00 0.00 0.00 71 1024.8
20181118012010 45 76 2.0 0.0 0.00 0.00 0.00 71 1024.8
20181118011511 45 49 1.0 0.0 0.00 0.00 0.00 70 1024.7
20181118011011 45 122 2.0 0.0 0.00 0.00 0.00 71 1024.8
20181118010511 44 59 3.0 0.0 0.00 0.00 0.00 71 1024.7
20181118010011 44 96 3.0 0.0 0.00 0.00 0.00 71 1024.7
20181118005511 45 96 4.0 6.0 0.00 0.00 0.00 71 1024.6
20181118005010 45 96 3.0 0.0 0.00 0.00 0.00 71 1024.8
20181118004511 45 96 3.0 0.0 0.00 0.00 0.00 70 1024.6
20181118004011 45 92 3.0 0.0 0.00 0.00 0.00 69 1024.7
20181118003510 46 92 3.0 0.0 0.00 0.00 0.00 69 1024.7
20181118003011 45 92 3.0 0.0 0.00 0.00 0.00 69 1024.8
20181118002510 45 92 3.0 0.0 0.00 0.00 0.00 69 1024.6
20181118002011 46 92 3.0 0.0 0.00 0.00 0.00 68 1024.7
20181118001511 46 87 5.0 0.0 0.00 0.00 0.00 69 1024.6
20181118001011 46 87 3.0 0.0 0.00 0.00 0.00 68 1024.8
20181118000515 46 87 2.0 0.0 0.00 0.00 0.00 68 1023.8
20181118000010 46 87 3.0 0.0 0.00 0.00 0.00 68 1023.8
20181117235511 46 87 1.0 0.0 0.00 0.00 0.00 68 1023.9
20181117235011 46 87 2.0 0.0 0.00 0.00 0.00 66 1023.8
20181117234511 47 87 2.0 0.0 0.00 0.00 0.00 67 1023.8
20181117234010 47 87 1.0 0.0 0.00 0.00 0.00 65 1023.9
20181117233511 47 87 2.0 0.0 0.00 0.00 0.00 65 1023.9
20181117233011 47 87 3.0 0.0 0.00 0.00 0.00 66 1023.8
20181117232511 47 62 3.0 0.0 0.00 0.00 0.00 65 1023.7
20181117232011 47 85 1.0 0.0 0.00 0.00 0.00 65 1023.6
20181117231511 47 85 0.0 0.0 0.00 0.00 0.00 65 1023.7
20181117231011 48 85 2.0 0.0 0.00 0.00 0.00 62 1023.6
20181117230511 48 85 2.0 0.0 0.00 0.00 0.00 61 1023.6
20181117230011 49 85 2.0 0.0 0.00 0.00 0.00 60 1023.6
20181117225510 49 113 2.0 0.0 0.00 0.00 0.00 57 1023.6
20181117225011 50 113 2.0 0.0 0.00 0.00 0.00 53 1023.6
20181117224511 51 113 1.0 0.0 0.00 0.00 0.00 50 1023.5
20181117224011 51 113 3.0 0.0 0.00 0.00 0.00 44 1023.6
20181117223511 51 113 1.0 0.0 0.00 0.00 0.00 44 1023.6
20181117223012 52 113 1.0 0.0 0.00 0.00 0.00 43 1023.6
20181117222511 52 113 1.0 0.0 0.00 0.00 0.00 44 1023.5
20181117222012 52 113 1.0 0.0 0.00 0.00 0.00 42 1023.6
20181117221511 52 113 0.0 0.0 0.00 0.00 0.00 40 1023.5
20181117221011 53 113 0.0 0.0 0.00 0.00 0.00 38 1023.4
20181117220511 53 110 1.0 0.0 0.00 0.00 0.00 39 1023.4
20181117220011 53 110 2.0 0.0 0.00 0.00 0.00 38 1023.4
20181117215510 53 92 1.0 0.0 0.00 0.00 0.00 38 1023.3
20181117215011 53 92 3.0 0.0 0.00 0.00 0.00 38 1023.3
20181117214511 53 92 1.0 0.0 0.00 0.00 0.00 38 1023.4
20181117214011 53 92 2.0 0.0 0.00 0.00 0.00 37 1023.3
20181117213511 53 92 2.0 0.0 0.00 0.00 0.00 37 1023.3
20181117213011 53 92 2.0 0.0 0.00 0.00 0.00 37 1023.2
20181117212511 53 128 3.0 0.0 0.00 0.00 0.00 37 1023.2
20181117212011 53 112 1.0 0.0 0.00 0.00 0.00 37 1023.2
20181117211511 53 112 2.0 0.0 0.00 0.00 0.00 37 1023.2
20181117211011 54 112 2.0 0.0 0.00 0.00 0.00 37 1023.2
20181117210511 54 116 2.0 0.0 0.00 0.00 0.00 37 1023.2
20181117210011 54 115 1.0 0.0 0.00 0.00 0.00 37 1023.1
20181117205511 54 139 2.0 0.0 0.00 0.00 0.00 37 1023.1
20181117205011 54 130 1.0 0.0 0.00 0.00 0.00 38 1023.1
20181117204511 54 130 2.0 0.0 0.00 0.00 0.00 37 1023.1
20181117204010 54 130 2.0 0.0 0.00 0.00 0.00 37 1023.1
20181117203510 54 140 2.0 0.0 0.00 0.00 0.00 37 1023.1
20181117203010 54 140 2.0 0.0 0.00 0.00 0.00 36 1023.0
20181117202511 54 140 1.0 0.0 0.00 0.00 0.00 37 1022.9
20181117202011 54 140 2.0 0.0 0.00 0.00 0.00 36 1022.9
20181117201510 54 140 1.0 0.0 0.00 0.00 0.00 36 1022.9
20181117201010 54 140 3.0 0.0 0.00 0.00 0.00 35 1022.9
20181117200510 55 140 2.0 0.0 0.00 0.00 0.00 36 1022.9
20181117200011 55 81 2.0 0.0 0.00 0.00 0.00 37 1022.8
20181117195510 55 84 2.0 0.0 0.00 0.00 0.00 38 1022.7
20181117195010 54 138 2.0 0.0 0.00 0.00 0.00 38 1022.8
20181117194510 55 138 3.0 0.0 0.00 0.00 0.00 38 1022.8
20181117194011 55 163 2.0 0.0 0.00 0.00 0.00 40 1022.7
20181117193510 54 136 3.0 0.0 0.00 0.00 0.00 39 1022.8
20181117193010 54 119 2.0 0.0 0.00 0.00 0.00 40 1022.8
20181117192510 55 119 1.0 0.0 0.00 0.00 0.00 39 1022.8
20181117192010 55 116 3.0 0.0 0.00 0.00 0.00 41 1022.8
20181117191511 55 141 5.0 0.0 0.00 0.00 0.00 43 1022.7
20181117191010 55 129 3.0 0.0 0.00 0.00 0.00 44 1022.7
20181117190510 54 129 1.0 0.0 0.00 0.00 0.00 45 1022.8
20181117190010 54 130 2.0 0.0 0.00 0.00 0.00 45 1022.8
20181117185510 55 132 4.0 0.0 0.00 0.00 0.00 46 1022.8
20181117185010 55 133 4.0 0.0 0.00 0.00 0.00 46 1022.8
20181117184510 55 155 4.0 0.0 0.00 0.00 0.00 47 1022.9
20181117184010 55 142 4.0 0.0 0.00 0.00 0.00 46 1023.0
20181117183510 55 108 1.0 0.0 0.00 0.00 0.00 46 1023.0
20181117183011 55 153 2.0 0.0 0.00 0.00 0.00 50 1023.0
20181117182510 54 211 1.0 0.0 0.00 0.00 0.00 52 1023.1
20181117182010 54 132 1.0 0.0 0.00 0.00 0.00 52 1023.3
20181117181511 54 132 1.0 0.0 0.00 0.00 0.00 53 1023.3
20181117181010 54 130 2.0 0.0 0.00 0.00 0.00 53 1023.4
20181117180514 54 120 5.0 0.0 0.00 0.00 0.00 56 1023.5
20181117180011 53 128 3.0 0.0 0.00 0.00 0.00 54 1023.5
20181117163011 48 114 1.0 0.0 0.00 0.00 0.00 69 1024.9
20181117162511 48 118 4.0 0.0 0.00 0.00 0.00 68 1024.9
20181117162011 46 134 3.0 0.0 0.00 0.00 0.00 71 1024.9
20181117161510 46 124 3.0 0.0 0.00 0.00 0.00 72 1025.0
20181117161011 46 112 1.0 0.0 0.00 0.00 0.00 72 1025.0
20181117160511 45 139 5.0 0.0 0.00 0.00 0.00 73 1025.0
20181117160011 46 121 7.0 0.0 0.00 0.00 0.00 70 1025.1
20181117155511 46 132 2.0 0.0 0.00 0.00 0.00 72 1025.2
20181117155011 46 98 3.0 0.0 0.00 0.00 0.00 72 1025.2
20181117154511 45 119 4.0 0.0 0.00 0.00 0.00 74 1025.1
20181117154011 46 107 1.0 0.0 0.00 0.00 0.00 71 1025.2
20181117153511 46 229 0.0 0.0 0.00 0.00 0.00 71 1025.2
20181117153011 47 229 1.0 0.0 0.00 0.00 0.00 69 1025.3
20181117152511 47 222 3.0 0.0 0.00 0.00 0.00 73 1025.2
20181117152011 46 187 1.0 0.0 0.00 0.00 0.00 71 1025.2